EZY335 LGZA-LROP

Flight info

Callsign EZY335
Flight time 1h 15m
Altitude 36000
Route OSDES UY302 GARTA UV60 YNN UN731 BITLA DCT VELBA DCT SOMOV DCT SORDU
Aircraft A320/M-SDE3FGHIRWY/LB1

Departure

Time 2026-04-30 20:15
Airport Zakynthos International Airport Dionysios Solomos (LGZA)

Arrival

Time 2026-04-30 21:31
Airport Bucharest Henri Coandă International Airport (LROP)
Time Latitude Longitude Altitude Speed Heading
2026-04-30 20:03 37.75409 20.88525 20 ft 0 kts 73°
2026-04-30 20:07 37.75401 20.88490 22 ft 4 kts 73°
2026-04-30 20:08 37.75394 20.88457 20 ft 4 kts 87°
2026-04-30 20:08 37.75399 20.88431 21 ft 3 kts 160°
2026-04-30 20:08 37.75401 20.88430 24 ft 0 kts 164°
2026-04-30 20:10 37.75342 20.88453 20 ft 8 kts 163°
2026-04-30 20:10 37.75257 20.88485 20 ft 15 kts 165°
2026-04-30 20:10 37.75147 20.88525 20 ft 18 kts 163°
2026-04-30 20:11 37.74897 20.88505 19 ft 21 kts 162°
2026-04-30 20:11 37.74754 20.88558 21 ft 22 kts 166°
2026-04-30 20:11 37.74599 20.88610 21 ft 24 kts 163°
2026-04-30 20:12 37.74254 20.88746 20 ft 28 kts 159°
2026-04-30 20:12 37.74160 20.88803 20 ft 5 kts 223°
2026-04-30 20:12 37.74164 20.88776 21 ft 2 kts 288°
2026-04-30 20:13 37.74172 20.88765 20 ft 1 kts 324°
2026-04-30 20:13 37.74195 20.88765 20 ft 6 kts
2026-04-30 20:13 37.74252 20.88753 20 ft 11 kts 345°
2026-04-30 20:13 37.74338 20.88707 20 ft 16 kts 338°
2026-04-30 20:14 37.74432 20.88672 22 ft 4 kts 344°
2026-04-30 20:14 37.74435 20.88671 23 ft 4 kts 344°
2026-04-30 20:14 37.74679 20.88581 21 ft 76 kts 343°
2026-04-30 20:14 37.75414 20.88305 21 ft 140 kts 343°
2026-04-30 20:15 37.76457 20.87916 386 ft 162 kts 344°
2026-04-30 20:15 37.77559 20.87522 1128 ft 164 kts 342°
2026-04-30 20:15 37.78668 20.87112 1745 ft 171 kts 343°
2026-04-30 20:15 37.79872 20.86660 2061 ft 191 kts 342°
2026-04-30 20:16 37.81220 20.86151 2477 ft 208 kts 342°
2026-04-30 20:16 37.82613 20.85624 3272 ft 209 kts 341°
2026-04-30 20:16 37.84006 20.85097 4079 ft 210 kts 341°
2026-04-30 20:16 37.85411 20.84567 4846 ft 212 kts 340°
2026-04-30 20:17 37.86903 20.84154 5367 ft 231 kts 353°
2026-04-30 20:17 37.88596 20.84422 5715 ft 261 kts 15°
2026-04-30 20:17 37.90264 20.85466 6317 ft 277 kts 25°
2026-04-30 20:17 37.91973 20.86643 7066 ft 282 kts 24°
2026-04-30 20:18 37.93745 20.87846 7866 ft 286 kts 23°
2026-04-30 20:18 37.95517 20.89039 8660 ft 290 kts 22°
2026-04-30 20:18 37.97376 20.89879 9417 ft 288 kts
2026-04-30 20:18 37.99362 20.90115 10168 ft 288 kts 357°
2026-04-30 20:19 38.01455 20.90240 10579 ft 307 kts 358°
2026-04-30 20:19 38.03644 20.90369 10786 ft 330 kts 358°
2026-04-30 20:19 38.06016 20.90517 10937 ft 353 kts 359°
2026-04-30 20:19 38.08524 20.90684 11333 ft 365 kts 359°
2026-04-30 20:20 38.11079 20.90862 11956 ft 370 kts 359°
2026-04-30 20:20 38.13671 20.91046 12628 ft 374 kts 359°
2026-04-30 20:20 38.16282 20.91229 13291 ft 378 kts 359°
2026-04-30 20:20 38.18921 20.91412 13926 ft 382 kts 359°
2026-04-30 20:21 38.21587 20.91594 14486 ft 386 kts 359°
2026-04-30 20:21 38.24284 20.91776 15060 ft 389 kts 359°
2026-04-30 20:21 38.27006 20.91961 15631 ft 392 kts 359°
2026-04-30 20:21 38.29708 20.92148 16181 ft 395 kts 359°
2026-04-30 20:22 38.32467 20.92340 16730 ft 398 kts 359°
2026-04-30 20:22 38.35246 20.92534 17255 ft 402 kts 359°
2026-04-30 20:22 38.38055 20.92726 17789 ft 405 kts 359°
2026-04-30 20:22 38.40878 20.92916 18308 ft 408 kts 359°
2026-04-30 20:23 38.43730 20.93104 18758 ft 411 kts 358°
2026-04-30 20:23 38.46608 20.93293 19225 ft 414 kts 358°
2026-04-30 20:23 38.49488 20.93481 19693 ft 416 kts 358°
2026-04-30 20:23 38.52391 20.93672 20155 ft 418 kts 358°
2026-04-30 20:24 38.55307 20.93866 20608 ft 421 kts 358°
2026-04-30 20:24 38.58236 20.94062 21051 ft 423 kts 358°
2026-04-30 20:24 38.61182 20.94257 21485 ft 425 kts 358°
2026-04-30 20:24 38.64153 20.94456 21927 ft 428 kts 358°
2026-04-30 20:25 38.70129 20.94867 22772 ft 432 kts 358°
2026-04-30 20:25 38.73103 20.95074 23173 ft 435 kts 358°
2026-04-30 20:26 38.79222 20.95493 24011 ft 440 kts 357°
2026-04-30 20:26 38.85319 20.95912 24726 ft 444 kts 357°
2026-04-30 20:26 38.88405 20.96124 25074 ft 445 kts 357°
2026-04-30 20:27 38.94612 20.96562 25736 ft 448 kts 357°
2026-04-30 20:27 39.00807 20.96389 26330 ft 441 kts 345°
2026-04-30 20:28 39.06894 20.95125 26927 ft 444 kts 345°
2026-04-30 20:28 39.13013 20.93861 27508 ft 447 kts 345°
2026-04-30 20:29 39.19131 20.92618 28371 ft 443 kts 345°
2026-04-30 20:30 39.28220 20.90767 29625 ft 438 kts 344°
2026-04-30 20:30 39.37193 20.88921 30905 ft 432 kts 344°
2026-04-30 20:31 39.46040 20.87103 32132 ft 426 kts 343°
2026-04-30 20:32 39.54728 20.85299 33287 ft 420 kts 343°
2026-04-30 20:32 39.60485 20.84108 34026 ft 417 kts 343°
2026-04-30 20:33 39.63348 20.83521 34314 ft 416 kts 343°
2026-04-30 20:33 39.69184 20.82997 34803 ft 431 kts 358°
2026-04-30 20:33 39.72210 20.83726 35019 ft 444 kts
2026-04-30 20:34 39.77997 20.86906 35465 ft 455 kts 17°
2026-04-30 20:34 39.83719 20.90345 35891 ft 456 kts 17°
2026-04-30 20:35 39.86607 20.92074 36049 ft 457 kts 17°
2026-04-30 20:35 39.95337 20.97305 36098 ft 462 kts 17°
2026-04-30 20:36 40.01173 21.00834 36120 ft 463 kts 17°
2026-04-30 20:37 40.09954 21.06139 36136 ft 464 kts 17°
2026-04-30 20:37 40.15822 21.09679 36146 ft 465 kts 17°
2026-04-30 20:38 40.21698 21.13251 36157 ft 465 kts 17°
2026-04-30 20:38 40.27571 21.16830 36166 ft 466 kts 17°
2026-04-30 20:39 40.36401 21.22206 36181 ft 467 kts 17°
2026-04-30 20:40 40.45306 21.27285 36196 ft 458 kts
2026-04-30 20:40 40.51477 21.28754 36198 ft 449 kts
2026-04-30 20:41 40.60772 21.30552 36197 ft 450 kts
2026-04-30 20:41 40.66973 21.31781 36213 ft 450 kts
2026-04-30 20:42 40.72118 21.32791 36219 ft 451 kts
2026-04-30 20:43 40.81442 21.34613 36237 ft 452 kts
2026-04-30 20:43 40.84528 21.35633 36240 ft 463 kts 12°
2026-04-30 20:43 40.87499 21.37365 36238 ft 473 kts 22°
2026-04-30 20:44 40.92736 21.42854 36241 ft 490 kts 40°
2026-04-30 20:44 40.95102 21.46099 36240 ft 490 kts 40°
2026-04-30 20:45 41.04597 21.59095 36238 ft 491 kts 40°
2026-04-30 20:45 41.09344 21.65616 36241 ft 491 kts 40°
2026-04-30 20:46 41.18818 21.78705 36246 ft 491 kts 40°
2026-04-30 20:47 41.25922 21.88533 36238 ft 492 kts 40°
2026-04-30 20:48 41.33029 21.98395 36246 ft 492 kts 40°
2026-04-30 20:48 41.37766 22.04994 36250 ft 493 kts 41°
2026-04-30 20:49 41.42490 22.11590 36255 ft 493 kts 41°
2026-04-30 20:50 41.49591 22.21525 36251 ft 493 kts 41°
2026-04-30 20:50 41.54317 22.28168 36254 ft 493 kts 41°
2026-04-30 20:51 41.58985 22.34735 36260 ft 493 kts 41°
2026-04-30 20:51 41.66061 22.44725 36254 ft 493 kts 41°
2026-04-30 20:52 41.70781 22.51400 36256 ft 493 kts 41°
2026-04-30 20:53 41.77841 22.61422 36254 ft 493 kts 42°
2026-04-30 20:53 41.82534 22.68109 36262 ft 493 kts 42°
2026-04-30 20:54 41.89585 22.78177 36268 ft 493 kts 42°
2026-04-30 20:55 41.96632 22.88168 36269 ft 490 kts 38°
2026-04-30 20:55 42.01281 22.93383 36268 ft 487 kts 34°
2026-04-30 20:56 42.09175 23.02025 36274 ft 487 kts 34°
2026-04-30 20:57 42.17051 23.10694 36286 ft 487 kts 34°
2026-04-30 20:57 42.22294 23.16476 36288 ft 487 kts 34°
2026-04-30 20:58 42.30156 23.25175 36300 ft 486 kts 34°
2026-04-30 20:58 42.35347 23.30936 36314 ft 486 kts 34°
2026-04-30 20:59 42.43166 23.39644 36309 ft 486 kts 35°
2026-04-30 21:00 42.53587 23.51281 36315 ft 486 kts 35°
2026-04-30 21:01 42.61409 23.60052 36321 ft 486 kts 35°
2026-04-30 21:02 42.69217 23.68839 36321 ft 486 kts 35°
2026-04-30 21:02 42.74417 23.74703 36325 ft 485 kts 35°
2026-04-30 21:03 42.79589 23.80546 36339 ft 485 kts 36°
2026-04-30 21:03 42.84779 23.86429 36348 ft 485 kts 36°
2026-04-30 21:04 42.89968 23.92325 36350 ft 484 kts 36°
2026-04-30 21:04 42.97731 24.01178 36359 ft 484 kts 36°
2026-04-30 21:05 43.02895 24.07086 36365 ft 484 kts 36°
2026-04-30 21:05 43.08065 24.13007 36372 ft 484 kts 36°
2026-04-30 21:06 43.13222 24.18936 36378 ft 484 kts 36°
2026-04-30 21:06 43.18376 24.24856 36380 ft 483 kts 36°
2026-04-30 21:07 43.23519 24.30775 36379 ft 482 kts 36°
2026-04-30 21:07 43.28654 24.36704 36378 ft 482 kts 36°
2026-04-30 21:08 43.33762 24.42621 36379 ft 482 kts 36°
2026-04-30 21:08 43.38903 24.48600 36377 ft 481 kts 36°
2026-04-30 21:09 43.44023 24.54552 36367 ft 481 kts 36°
2026-04-30 21:09 43.49131 24.60491 36369 ft 481 kts 36°
2026-04-30 21:10 43.54229 24.66464 36371 ft 481 kts 37°
2026-04-30 21:10 43.56608 24.69252 35983 ft 483 kts 36°
2026-04-30 21:10 43.59195 24.72282 34923 ft 492 kts 36°
2026-04-30 21:11 43.61825 24.75361 34044 ft 496 kts 37°
2026-04-30 21:11 43.64454 24.78446 33038 ft 499 kts 37°
2026-04-30 21:11 43.67059 24.81513 32332 ft 496 kts 37°
2026-04-30 21:11 43.69642 24.84679 31451 ft 499 kts 42°
2026-04-30 21:12 43.71933 24.88309 30606 ft 502 kts 49°
2026-04-30 21:12 43.74116 24.92103 29560 ft 503 kts 49°
2026-04-30 21:12 43.76298 24.95887 28502 ft 503 kts 49°
2026-04-30 21:12 43.78514 24.99723 27444 ft 503 kts 49°
2026-04-30 21:13 43.80700 25.03507 26386 ft 502 kts 49°
2026-04-30 21:13 43.82878 25.07284 25320 ft 502 kts 49°
2026-04-30 21:13 43.85053 25.11064 24423 ft 498 kts 49°
2026-04-30 21:13 43.87193 25.14794 23606 ft 492 kts 49°
2026-04-30 21:14 43.89305 25.18479 22758 ft 485 kts 49°
2026-04-30 21:14 43.91393 25.22126 21966 ft 478 kts 48°
2026-04-30 21:14 43.93444 25.25712 21194 ft 471 kts 48°
2026-04-30 21:14 43.95469 25.29249 20455 ft 464 kts 48°
2026-04-30 21:15 43.97461 25.32732 19749 ft 458 kts 48°
2026-04-30 21:15 43.98770 25.35028 19303 ft 454 kts 48°
2026-04-30 21:15 44.00709 25.38439 18643 ft 447 kts 48°
2026-04-30 21:15 44.02757 25.41614 17752 ft 431 kts 39°
2026-04-30 21:16 44.05098 25.44091 16465 ft 417 kts 28°
2026-04-30 21:16 44.07675 25.45824 15186 ft 405 kts 18°
2026-04-30 21:16 44.10357 25.46889 13949 ft 396 kts 13°
2026-04-30 21:16 44.12958 25.47807 13381 ft 372 kts 14°
2026-04-30 21:17 44.15337 25.48667 13221 ft 342 kts 14°
2026-04-30 21:17 44.17579 25.49492 13082 ft 316 kts 14°
2026-04-30 21:17 44.19599 25.50243 12945 ft 293 kts 14°
2026-04-30 21:17 44.21518 25.50955 12665 ft 278 kts 14°
2026-04-30 21:18 44.23378 25.51540 12248 ft 270 kts
2026-04-30 21:18 44.25262 25.51656 11992 ft 270 kts 357°
2026-04-30 21:18 44.27124 25.51390 11724 ft 268 kts 354°
2026-04-30 21:18 44.28972 25.51097 11474 ft 266 kts 354°
2026-04-30 21:19 44.30813 25.50806 11218 ft 265 kts 354°
2026-04-30 21:19 44.32638 25.50518 10964 ft 264 kts 354°
2026-04-30 21:19 44.34463 25.50232 10708 ft 263 kts 354°
2026-04-30 21:19 44.36273 25.49946 10462 ft 261 kts 354°
2026-04-30 21:20 44.38081 25.49658 10256 ft 260 kts 354°
2026-04-30 21:20 44.39879 25.49375 10106 ft 260 kts 354°
2026-04-30 21:20 44.41671 25.49094 9982 ft 259 kts 354°
2026-04-30 21:20 44.43447 25.48816 9710 ft 260 kts 354°
2026-04-30 21:21 44.45246 25.48531 9320 ft 259 kts 354°
2026-04-30 21:21 44.47030 25.48247 8910 ft 259 kts 355°
2026-04-30 21:21 44.50472 25.48391 8524 ft 239 kts 28°
2026-04-30 21:22 44.51665 25.49922 8333 ft 233 kts 58°
2026-04-30 21:22 44.52460 25.56618 7418 ft 245 kts 81°
2026-04-30 21:23 44.52645 25.59001 7103 ft 240 kts 81°
2026-04-30 21:23 44.52825 25.61264 6710 ft 231 kts 81°
2026-04-30 21:23 44.53079 25.64395 6048 ft 250 kts 81°
2026-04-30 21:24 44.53233 25.66312 5790 ft 251 kts 81°
2026-04-30 21:24 44.53427 25.68755 5430 ft 249 kts 81°
2026-04-30 21:24 44.53618 25.71161 5126 ft 246 kts 81°
2026-04-30 21:25 44.53988 25.75817 4513 ft 235 kts 81°
2026-04-30 21:25 44.54166 25.78077 4220 ft 230 kts 81°
2026-04-30 21:25 44.54340 25.80282 3936 ft 226 kts 82°
2026-04-30 21:26 44.54679 25.84584 3373 ft 218 kts 82°
2026-04-30 21:26 44.54838 25.86627 3108 ft 201 kts 82°
2026-04-30 21:27 44.55127 25.90327 2639 ft 187 kts 82°
2026-04-30 21:27 44.55260 25.92044 2421 ft 168 kts 82°
2026-04-30 21:27 44.55379 25.93583 2245 ft 149 kts 82°
2026-04-30 21:28 44.55589 25.96286 1858 ft 134 kts 82°
2026-04-30 21:28 44.55689 25.97577 1691 ft 133 kts 82°
2026-04-30 21:28 44.55887 26.00141 1358 ft 133 kts 82°
2026-04-30 21:29 44.55987 26.01439 1172 ft 134 kts 82°
2026-04-30 21:29 44.56294 26.05392 632 ft 136 kts 85°
2026-04-30 21:30 44.56495 26.08020 335 ft 134 kts 84°
2026-04-30 21:31 44.56672 26.10386 321 ft 36 kts 84°
2026-04-30 21:31 44.56807 26.10756 321 ft 0 kts 358°
2026-04-30 21:32 44.56819 26.10755 321 ft 7 kts 358°
2026-04-30 21:32 44.56903 26.10745 321 ft 13 kts 353°
2026-04-30 21:32 44.56987 26.10716 321 ft 12 kts 330°
2026-04-30 21:32 44.57041 26.10616 319 ft 14 kts 296°
2026-04-30 21:33 44.57066 26.10470 321 ft 17 kts 265°
2026-04-30 21:33 44.57035 26.10084 319 ft 23 kts 265°
2026-04-30 21:33 44.57019 26.09859 321 ft 24 kts 264°
2026-04-30 21:34 44.57008 26.09764 321 ft 3 kts 237°
2026-04-30 21:34 44.56987 26.09762 320 ft 5 kts 163°
2026-04-30 21:34 44.56951 26.09769 320 ft 0 kts 173°
2026-04-30 21:35 44.56918 26.09531 321 ft 0 kts 174°